EW1268 Weather Reports


Display with metric or nautical units.
time (UTC)temp
F
wind
direction
speed
MPH
gust
MPH
rain 1hr
in
rain 24hr
in
rain mn
in
humidity
%
barometer
mb
20260508225010 76 132 1.0 5.0 0.00 0.01 0.01 88 1009.2
20260508224531 76 334 1.0 5.0 0.00 0.01 0.01 88 1009.2
20260508224009 76 80 1.0 4.0 0.00 0.01 0.01 88 1009.2
20260508223510 77 101 1.0 4.0 0.00 0.01 0.01 88 1009.0
20260508223034 76 58 1.0 8.0 0.00 0.01 0.01 88 1009.1
20260508222510 76 161 1.0 8.0 0.00 0.01 0.01 88 1009.1
20260508222009 77 171 2.0 5.0 0.00 0.01 0.01 87 1009.3
20260508221526 77 129 1.0 5.0 0.00 0.01 0.01 87 1009.2
20260508221011 77 232 2.0 5.0 0.00 0.01 0.01 87 1009.1
20260508220510 77 115 1.0 4.0 0.00 0.01 0.01 87 1009.1
20260508220014 77 74 1.0 4.0 0.00 0.01 0.01 87 1009.1
20260508215507 77 119 1.0 4.0 0.00 0.01 0.01 87 1009.3
20260508215009 77 205 1.0 5.0 0.00 0.01 0.01 87 1009.3
20260508214523 77 209 2.0 5.0 0.00 0.01 0.01 87 1009.3
20260508214010 77 51 1.0 4.0 0.00 0.01 0.01 87 1009.4
20260508213507 77 93 1.0 4.0 0.00 0.01 0.01 88 1009.3
20260508213018 78 214 1.0 5.0 0.00 0.01 0.01 88 1009.4
20260508212509 77 41 1.0 5.0 0.00 0.01 0.01 87 1009.5
20260508212007 77 119 1.0 3.0 0.00 0.01 0.01 87 1009.6
20260508211518 77 178 1.0 6.0 0.00 0.01 0.01 87 1009.7
20260508211009 78 137 1.0 6.0 0.00 0.01 0.01 87 1009.8
20260508210510 78 93 1.0 6.0 0.00 0.01 0.01 87 1009.9
20260508210025 78 93 1.0 6.0 0.00 0.01 0.01 87 1009.8
20260508205515 78 178 1.0 3.0 0.00 0.01 0.01 88 1009.7
20260508205003 77 76 2.0 3.0 0.00 0.01 0.01 87 1009.7
20260508204511 78 115 1.0 6.0 0.00 0.01 0.01 86 1010.0
20260508204007 78 93 2.0 7.0 0.00 0.01 0.01 86 1009.9
20260508203507 78 93 3.0 8.0 0.00 0.01 0.01 86 1010.0
20260508203020 79 190 2.0 8.0 0.00 0.01 0.01 87 1010.0
20260508202508 79 175 2.0 5.0 0.00 0.01 0.01 88 1010.0
20260508202007 78 93 1.0 7.0 0.00 0.01 0.01 88 1009.9
20260508201526 78 161 1.0 7.0 0.00 0.01 0.01 89 1010.0
20260508201005 77 178 4.0 10.0 0.00 0.01 0.01 90 1010.0
20260508200506 76 207 3.0 10.0 0.00 0.01 0.01 91 1010.1
20260508200019 75 153 2.0 6.0 0.00 0.01 0.01 91 1010.2
20260508195506 74 93 1.0 3.0 0.00 0.01 0.01 91 1010.2
20260508195007 74 115 0.0 6.0 0.00 0.01 0.01 92 1010.5
20260508194540 74 51 1.0 6.0 0.00 0.01 0.01 91 1010.6
20260508194011 74 178 1.0 6.0 0.00 0.01 0.01 91 1010.7
20260508193508 73 165 2.0 6.0 0.00 0.01 0.01 92 1010.4
20260508193015 73 188 1.0 3.0 0.00 0.01 0.01 91 1010.8
20260508192504 73 161 0.0 3.0 0.00 0.01 0.01 91 1011.0
20260508192009 72 111 1.0 2.0 0.00 0.01 0.01 91 1011.0
20260508191518 72 148 0.0 2.0 0.00 0.01 0.01 91 1011.2
20260508191007 72 76 1.0 2.0 0.00 0.01 0.01 91 1011.2
20260508190508 72 80 1.0 2.0 0.01 0.01 0.01 91 1011.2
20260508190026 72 265 0.0 2.0 0.01 0.01 0.01 91 1011.3
20260508185507 72 51 1.0 2.0 0.01 0.01 0.01 91 1011.2
20260508185004 72 137 0.0 2.0 0.01 0.01 0.01 90 1011.1
20260508184512 72 67 1.0 5.0 0.01 0.01 0.01 90 1011.0
20260508184006 72 51 0.0 5.0 0.01 0.01 0.01 90 1011.1
20260508183508 72 155 1.0 5.0 0.01 0.01 0.01 90 1011.3
20260508183022 72 205 1.0 6.0 0.01 0.01 0.01 91 1011.1
20260508182510 72 157 1.0 6.0 0.01 0.01 0.01 91 1011.1
20260508182007 73 153 2.0 6.0 0.01 0.01 0.01 91 1011.1
20260508181540 72 250 1.0 6.0 0.01 0.01 0.01 91 1011.1
20260508181009 72 171 2.0 6.0 0.01 0.01 0.01 91 1011.1
20260508180509 72 234 1.0 5.0 0.00 0.00 0.00 91 1011.2
20260508180017 72 173 2.0 5.0 0.00 0.00 0.00 91 1011.4
20260508175508 71 148 2.0 5.0 0.00 0.00 0.00 90 1011.5
20260508175006 71 132 1.0 4.0 0.00 0.00 0.00 90 1011.9
20260508174524 71 265 1.0 3.0 0.00 0.00 0.00 90 1011.9
20260508174007 71 153 1.0 3.0 0.00 0.00 0.00 90 1012.0
20260508173513 71 126 1.0 4.0 0.00 0.00 0.00 89 1012.0
20260508173021 71 137 0.0 4.0 0.00 0.00 0.00 89 1012.0
20260508172506 71 137 0.0 3.0 0.00 0.00 0.00 89 1012.0
20260508172010 71 34 0.0 5.0 0.00 0.00 0.00 88 1012.2
20260508171524 72 309 1.0 5.0 0.00 0.00 0.00 88 1012.1
20260508171008 72 178 1.0 4.0 0.00 0.00 0.00 88 1012.1
20260508170507 72 137 0.0 3.0 0.00 0.00 0.00 88 1012.2
20260508170024 72 119 0.0 4.0 0.00 0.00 0.00 87 1012.2
20260508165510 72 107 1.0 4.0 0.00 0.00 0.00 87 1012.2
20260508165004 72 221 1.0 4.0 0.00 0.00 0.00 87 1012.2
20260508164517 72 93 1.0 4.0 0.00 0.00 0.00 88 1012.3
20260508164008 71 146 2.0 4.0 0.00 0.00 0.00 88 1012.3
20260508163508 71 153 1.0 4.0 0.00 0.00 0.00 87 1012.6
20260508163022 71 137 1.0 6.0 0.00 0.00 0.00 87 1012.5
20260508162509 71 9 1.0 6.0 0.00 0.00 0.00 88 1012.2
20260508162012 71 93 2.0 9.0 0.00 0.00 0.00 88 1012.1
20260508161530 71 143 2.0 9.0 0.00 0.00 0.00 88 1012.2
20260508161004 70 161 2.0 7.0 0.00 0.00 0.00 88 1012.2
20260508160508 70 137 2.0 6.0 0.00 0.00 0.00 88 1012.4
20260508160026 70 161 2.0 6.0 0.00 0.00 0.00 88 1012.5
20260508155513 69 119 2.0 4.0 0.00 0.00 0.00 88 1012.7
20260508155010 69 78 1.0 4.0 0.00 0.00 0.00 88 1012.9
20260508154526 69 76 1.0 7.0 0.00 0.00 0.00 88 1012.9
20260508154011 69 36 2.0 7.0 0.00 0.00 0.00 88 1013.0
20260508153507 69 93 1.0 6.0 0.00 0.00 0.00 88 1013.0
20260508153012 69 67 1.0 9.0 0.00 0.00 0.00 89 1013.0
20260508152506 69 67 1.0 9.0 0.00 0.00 0.00 89 1012.9
20260508152006 69 126 2.0 6.0 0.00 0.00 0.00 89 1013.0
20260508151522 69 90 2.0 6.0 0.00 0.00 0.00 90 1012.9
20260508151012 69 334 1.0 4.0 0.00 0.00 0.00 90 1012.9
20260508150510 69 119 1.0 3.0 0.00 0.00 0.00 90 1013.0
20260508150024 69 119 1.0 3.0 0.00 0.00 0.00 90 1012.9
20260508145511 69 78 1.0 3.0 0.00 0.00 0.00 90 1013.0
20260508145007 69 309 1.0 4.0 0.00 0.00 0.00 90 1013.0
20260508144516 69 41 1.0 5.0 0.00 0.00 0.00 90 1012.9
20260508144011 69 59 1.0 5.0 0.00 0.00 0.00 90 1013.0
20260508143515 69 51 1.0 4.0 0.00 0.00 0.00 90 1013.0
20260508143026 69 153 1.0 4.0 0.00 0.00 0.00 90 1012.9
20260508142511 69 93 2.0 4.0 0.00 0.00 0.00 91 1012.7
20260508142010 69 26 1.0 3.0 0.00 0.00 0.00 91 1012.8
20260508141529 69 80 1.0 3.0 0.00 0.00 0.00 90 1012.7
20260508141009 69 51 1.0 3.0 0.00 0.00 0.00 90 1013.0
20260508140507 69 119 1.0 3.0 0.00 0.00 0.00 90 1012.5
20260508140026 69 56 1.0 2.0 0.00 0.00 0.00 90 1013.0
20260508135512 69 137 0.0 3.0 0.00 0.00 0.00 90 1013.1
20260508135011 69 61 1.0 3.0 0.00 0.00 0.00 90 1013.1
20260508134524 69 337 1.0 5.0 0.00 0.00 0.00 90 1012.9
20260508134012 69 183 0.0 5.0 0.00 0.00 0.00 90 1012.8
20260508133516 69 183 2.0 5.0 0.00 0.00 0.00 90 1012.7
20260508133015 69 34 1.0 5.0 0.00 0.00 0.00 90 1012.4
20260508132507 69 196 1.0 6.0 0.00 0.00 0.00 90 1012.5
20260508132010 69 193 1.0 6.0 0.00 0.00 0.00 90 1012.7
20260508131522 69 126 0.0 3.0 0.00 0.00 0.00 90 1012.8
20260508131010 69 76 2.0 5.0 0.00 0.00 0.00 89 1012.9
20260508130511 68 136 1.0 5.0 0.00 0.00 0.00 89 1013.1
20260508130010 68 93 1.0 4.0 0.00 0.00 0.00 89 1013.1
20260508125504 68 196 1.0 4.0 0.00 0.00 0.00 89 1013.2
20260508125004 68 209 1.0 3.0 0.00 0.00 0.00 89 1013.2
20260508124508 68 119 0.0 3.0 0.00 0.00 0.00 89 1013.0
20260508124006 68 153 0.0 3.0 0.00 0.00 0.00 89 1012.9
20260508123505 68 63 1.0 3.0 0.00 0.00 0.00 89 1012.9
20260508123011 68 93 0.0 3.0 0.00 0.00 0.00 88 1012.9
20260508122506 68 51 1.0 7.0 0.00 0.00 0.00 89 1012.9
20260508122004 68 51 1.0 7.0 0.00 0.00 0.00 88 1012.9
20260508121511 68 22 1.0 3.0 0.00 0.00 0.00 89 1012.8
20260508121004 68 51 0.0 7.0 0.00 0.00 0.00 88 1012.9
20260508120506 68 80 1.0 7.0 0.00 0.00 0.00 88 1012.9
20260508120009 68 47 1.0 7.0 0.00 0.00 0.00 88 1013.2
20260508115506 68 146 1.0 7.0 0.00 0.00 0.00 88 1013.4
20260508115004 68 25 1.0 6.0 0.00 0.00 0.00 88 1013.5
20260508114511 68 9 1.0 6.0 0.00 0.00 0.00 88 1013.6
20260508114005 68 40 2.0 6.0 0.00 0.00 0.00 88 1013.7
20260508113504 68 93 1.0 3.0 0.00 0.00 0.00 88 1013.5
20260508113013 68 265 1.0 3.0 0.00 0.00 0.00 88 1013.3
20260508112503 68 78 2.0 3.0 0.00 0.00 0.00 88 1013.1
20260508112005 68 47 1.0 3.0 0.00 0.00 0.00 88 1012.9
20260508111512 68 76 0.0 3.0 0.00 0.00 0.00 88 1012.6
20260508111003 68 178 0.0 3.0 0.00 0.00 0.00 87 1012.6
20260508110504 68 76 1.0 4.0 0.00 0.00 0.00 87 1012.6
20260508110011 68 221 1.0 4.0 0.00 0.00 0.00 87 1012.7
20260508105504 68 99 1.0 4.0 0.00 0.00 0.00 87 1012.9
20260508105009 68 80 0.0 4.0 0.00 0.00 0.00 87 1013.1
20260508104511 68 98 2.0 4.0 0.00 0.00 0.00 87 1013.0
20260508104006 68 65 1.0 5.0 0.00 0.00 0.00 87 1012.7
20260508103503 68 93 2.0 5.0 0.00 0.00 0.00 86 1012.5
20260508103017 68 9 1.0 5.0 0.00 0.00 0.00 86 1012.8
20260508102503 68 98 1.0 8.0 0.00 0.00 0.00 86 1012.8
20260508102003 68 30 1.0 8.0 0.00 0.00 0.00 86 1012.9
20260508101509 69 309 1.0 7.0 0.00 0.00 0.00 86 1012.9
20260508101004 69 325 1.0 4.0 0.00 0.00 0.00 86 1012.6
20260508100503 69 105 1.0 4.0 0.00 0.00 0.00 86 1013.0
20260508100012 69 23 1.0 4.0 0.00 0.00 0.00 86 1013.3
20260508095503 69 59 1.0 4.0 0.00 0.00 0.00 86 1013.0
20260508095006 69 300 1.0 9.0 0.00 0.00 0.00 86 1012.9
20260508094512 69 111 1.0 9.0 0.00 0.00 0.00 86 1012.9
20260508094012 69 93 1.0 3.0 0.00 0.00 0.00 86 1012.7
20260508093507 69 221 0.0 3.0 0.00 0.00 0.00 86 1012.8
20260508093020 69 93 1.0 4.0 0.00 0.00 0.00 85 1012.7
20260508092504 69 51 1.0 4.0 0.00 0.00 0.00 85 1012.9
20260508092006 69 93 1.0 5.0 0.00 0.00 0.00 85 1012.3
20260508091519 69 90 2.0 5.0 0.00 0.00 0.00 85 1012.0
20260508091003 69 196 1.0 3.0 0.00 0.00 0.00 85 1012.2
20260508090503 69 111 1.0 3.0 0.00 0.00 0.00 85 1012.3
20260508090011 69 265 0.0 4.0 0.00 0.00 0.00 85 1012.3
20260508085507 69 93 1.0 4.0 0.00 0.00 0.00 85 1012.2
20260508085007 69 93 1.0 4.0 0.00 0.00 0.00 85 1012.1
20260508084512 69 93 1.0 4.0 0.00 0.00 0.00 85 1012.3
20260508084009 69 80 1.0 3.0 0.00 0.00 0.00 85 1012.5
20260508083507 69 341 1.0 3.0 0.00 0.00 0.00 85 1012.8
20260508083012 69 38 1.0 4.0 0.00 0.00 0.00 85 1012.9
20260508082507 69 83 1.0 4.0 0.00 0.00 0.00 85 1012.9
20260508082007 70 34 1.0 4.0 0.00 0.00 0.00 85 1012.7
20260508081512 70 51 0.0 2.0 0.00 0.00 0.00 85 1012.6
20260508081004 70 93 0.0 3.0 0.00 0.00 0.00 85 1012.8
20260508080512 70 34 1.0 4.0 0.00 0.00 0.00 84 1012.8
20260508080014 70 9 0.0 4.0 0.00 0.00 0.00 84 1012.8
20260508075504 70 93 0.0 3.0 0.00 0.00 0.00 84 1012.7
20260508075006 70 76 1.0 3.0 0.00 0.00 0.00 84 1012.6
20260508074514 70 51 1.0 4.0 0.00 0.00 0.00 84 1013.0
20260508074006 70 44 1.0 5.0 0.00 0.00 0.00 84 1013.0
20260508073507 70 325 0.0 5.0 0.00 0.00 0.00 84 1013.1
20260508073012 70 9 1.0 3.0 0.00 0.00 0.00 84 1013.2
20260508072503 70 316 1.0 4.0 0.00 0.00 0.00 84 1013.2
20260508072003 70 26 0.0 4.0 0.00 0.00 0.00 84 1013.1
20260508071522 70 9 0.0 2.0 0.00 0.00 0.00 84 1013.2
20260508071009 70 93 0.0 2.0 0.00 0.00 0.00 84 1013.2
20260508070507 70 111 0.0 2.0 0.00 0.00 0.00 85 1013.1
20260508070012 70 44 1.0 2.0 0.00 0.00 0.00 85 1013.2
20260508065508 70 44 1.0 2.0 0.00 0.00 0.00 85 1013.2
20260508065006 70 9 1.0 2.0 0.00 0.00 0.00 84 1013.4
20260508064514 70 34 0.0 3.0 0.00 0.00 0.00 85 1013.5
20260508064005 70 67 0.0 3.0 0.00 0.00 0.00 84 1013.4
20260508063504 70 76 1.0 3.0 0.00 0.00 0.00 85 1013.4
20260508063012 70 51 0.0 2.0 0.00 0.00 0.00 84 1013.3
20260508062509 70 9 0.0 3.0 0.00 0.00 0.00 84 1013.2
20260508062006 70 105 0.0 3.0 0.00 0.00 0.00 85 1013.2
20260508061521 70 67 1.0 3.0 0.00 0.00 0.00 84 1013.1
20260508061008 70 126 1.0 3.0 0.00 0.00 0.00 84 1013.0
20260508060509 70 93 1.0 2.0 0.00 0.00 0.00 84 1012.9
20260508060017 70 67 1.0 2.0 0.00 0.00 0.00 84 1013.0
20260508055507 70 93 0.0 2.0 0.00 0.00 0.00 83 1013.3
20260508055006 70 309 0.0 1.0 0.00 0.00 0.00 83 1013.2
20260508054519 70 93 0.0 1.0 0.00 0.00 0.00 83 1013.3
20260508054009 70 9 0.0 2.0 0.00 0.00 0.00 83 1013.2
20260508053507 70 34 0.0 3.0 0.00 0.00 0.00 82 1013.1
20260508053015 70 93 0.0 3.0 0.00 0.00 0.00 82 1013.0
20260508052514 70 72 0.0 2.0 0.00 0.00 0.00 82 1013.2
20260508052006 70 309 0.0 2.0 0.00 0.00 0.00 82 1013.4
20260508051525 70 93 0.0 4.0 0.00 0.00 0.00 82 1013.3
20260508051007 70 247 0.0 4.0 0.00 0.00 0.00 82 1013.3
20260508050507 70 309 1.0 3.0 0.00 0.00 0.00 81 1013.3
20260508050016 70 67 0.0 3.0 0.00 0.00 0.00 81 1013.4
20260508045511 70 61 1.0 3.0 0.00 0.00 0.00 81 1013.2
20260508045006 70 153 1.0 3.0 0.00 0.00 0.00 81 1013.2
20260508044516 70 34 0.0 3.0 0.00 0.00 0.00 81 1013.4
20260508044007 70 34 1.0 3.0 0.00 0.00 0.00 81 1013.3
20260508043512 70 93 1.0 3.0 0.00 0.00 0.00 80 1013.3
20260508043017 71 26 1.0 3.0 0.00 0.00 0.00 80 1013.2
20260508042508 71 61 1.0 3.0 0.00 0.00 0.00 81 1013.5
20260508042007 71 325 1.0 4.0 0.00 0.00 0.00 81 1013.7
20260508041516 71 76 1.0 4.0 0.00 0.00 0.00 80 1013.7
20260508041007 71 93 0.0 3.0 0.00 0.00 0.00 80 1013.5
20260508040507 71 51 1.0 6.0 0.00 0.00 0.00 80 1013.4
20260508040015 71 83 1.0 6.0 0.00 0.00 0.00 80 1013.6
20260508035507 71 97 1.0 6.0 0.00 0.00 0.00 80 1013.6
20260508035007 72 265 1.0 5.0 0.00 0.00 0.00 80 1013.1
20260508034513 72 9 1.0 5.0 0.00 0.00 0.00 80 1012.4
20260508034009 72 146 1.0 5.0 0.00 0.00 0.00 80 1012.3
20260508033512 72 115 1.0 5.0 0.00 0.00 0.00 80 1012.6
20260508033017 72 173 1.0 4.0 0.00 0.00 0.00 80 1012.9
20260508032512 72 211 1.0 3.0 0.00 0.00 0.00 80 1013.2
20260508032008 72 111 0.0 2.0 0.00 0.00 0.00 80 1013.5
20260508031519 72 51 0.0 2.0 0.00 0.00 0.00 80 1013.7
20260508031010 72 93 0.0 3.0 0.00 0.00 0.00 80 1013.6
20260508030508 72 103 1.0 3.0 0.00 0.00 0.00 80 1013.7
20260508030015 72 22 0.0 3.0 0.00 0.00 0.00 81 1013.7
20260508025506 73 93 1.0 3.0 0.00 0.00 0.00 81 1013.7
20260508025006 73 51 0.0 3.0 0.00 0.00 0.00 80 1013.7
20260508024517 73 83 1.0 3.0 0.00 0.00 0.00 80 1013.6
20260508024007 73 26 1.0 3.0 0.00 0.00 0.00 80 1013.7
20260508023508 73 67 0.0 3.0 0.00 0.00 0.00 80 1013.8
20260508023018 73 51 0.0 2.0 0.00 0.00 0.00 80 1013.7
20260508022506 73 67 0.0 3.0 0.00 0.00 0.00 80 1013.4
20260508022012 73 93 0.0 3.0 0.00 0.00 0.00 80 1013.3
20260508021517 73 76 0.0 2.0 0.00 0.00 0.00 80 1013.4
20260508021007 73 119 0.0 2.0 0.00 0.00 0.00 80 1013.5
20260508020506 73 360 0.0 3.0 0.00 0.00 0.00 79 1013.4
20260508020018 74 61 0.0 3.0 0.00 0.00 0.00 79 1013.4
20260508015505 74 20 1.0 3.0 0.00 0.00 0.00 79 1013.4
20260508015005 74 78 1.0 3.0 0.00 0.00 0.00 79 1013.5
20260508014518 74 119 0.0 4.0 0.00 0.00 0.00 78 1013.5
20260508014008 74 61 1.0 4.0 0.00 0.00 0.00 79 1013.5
20260508013505 74 76 1.0 3.0 0.00 0.00 0.00 79 1013.4
20260508013019 74 80 0.0 3.0 0.00 0.00 0.00 78 1013.5
20260508012508 74 119 1.0 3.0 0.00 0.00 0.00 78 1013.5
20260508012007 74 46 0.0 3.0 0.00 0.00 0.00 78 1013.6
20260508011525 75 325 1.0 3.0 0.00 0.00 0.00 77 1013.5
20260508011013 75 44 0.0 2.0 0.00 0.00 0.00 77 1013.5
20260508010507 75 46 1.0 2.0 0.00 0.00 0.00 76 1013.4
20260508010017 75 115 1.0 3.0 0.00 0.00 0.00 76 1013.5
20260508005506 75 86 1.0 4.0 0.00 0.00 0.00 75 1013.6
20260508005006 75 56 2.0 5.0 0.00 0.00 0.00 75 1013.7
20260508004524 75 58 2.0 6.0 0.00 0.00 0.00 75 1013.7
20260508004010 76 51 1.0 6.0 0.00 0.00 0.00 75 1013.7
20260508003507 76 63 1.0 6.0 0.00 0.00 0.00 76 1013.4
20260508003021 76 23 1.0 6.0 0.00 0.00 0.00 75 1013.3
20260508002508 76 93 2.0 5.0 0.00 0.00 0.00 75 1013.4
20260508002010 76 57 1.0 5.0 0.00 0.00 0.00 74 1013.5
20260508001517 76 51 1.0 4.0 0.00 0.00 0.00 74 1013.6
20260508001010 77 63 1.0 6.0 0.00 0.00 0.00 75 1013.5
20260508000519 77 93 1.0 6.0 0.00 0.01 0.00 75 1013.6
20260508000019 77 71 1.0 8.0 0.00 0.01 0.00 74 1013.6
20260507235507 77 55 2.0 8.0 0.00 0.01 0.00 74 1013.6
20260507235006 77 309 1.0 9.0 0.00 0.01 0.00 75 1013.7
20260507234521 78 61 1.0 9.0 0.00 0.01 0.00 74 1013.7
20260507234007 78 9 2.0 9.0 0.00 0.01 0.00 75 1013.7
20260507233513 79 34 1.0 8.0 0.00 0.01 0.00 75 1013.7
20260507233023 79 78 3.0 8.0 0.00 0.01 0.00 74 1013.6
20260507232506 80 51 1.0 6.0 0.00 0.01 0.00 74 1013.5
20260507232008 81 38 1.0 5.0 0.00 0.01 0.00 74 1013.4
20260507231531 81 319 2.0 5.0 0.00 0.01 0.00 74 1013.3
20260507231008 81 137 1.0 4.0 0.00 0.01 0.00 74 1013.2
20260507230510 81 34 1.0 4.0 0.00 0.01 0.00 75 1013.3
20260507230015 81 72 1.0 3.0 0.00 0.01 0.00 75 1013.2
20260507225511 80 51 1.0 7.0 0.00 0.01 0.00 74 1013.0